Location: Newark
(45.8667°N, 9.7333°E)
Time: 18:47:11
(UTC+00:00)

Vanguard 2 Rocket - Pass Details

Date: 02 February 2020
Orbit: 554 x 3326 km, 32.9° (Epoch: 16 February)

Event Time Altitude Azimuth Distance (km) Brightness Sun altitude
Rises 06:20:14 0° 246° (WSW) 2,880 9.1 -4.5°
Reaches altitude 10° 06:24:14 10° 207° (SSW) 2,267 8.9 -3.8°
Maximum altitude 06:25:34 11° 192° (SSW) 2,324 9.1 -3.6°
Drops below altitude 10° 06:27:02 10° 177° (S) 2,535 9.5 -3.3°
Sets 06:32:43 0° 144° (SE) 4,125 11.4 -2.4°
